Flag for Iceland Weather past 2 weeks in Reykjavik, Iceland

Now
52 °F

Broken clouds.


Feels Like: 52 °F
Forecast: 51 / 58 °F
Wind: 2 mph from North

Location: Reykjavik Airport

Current Time: Jul 6, 2015 at 8:02:23 AM

Latest Report: Jul 6, 2015 at 7:00 AM


Visibility: N/A

Pressure: 30.01 "Hg

Humidity: 77%

Dew point: 45 °F

Location of ReykjavikLocation

Historic Weather in Reykjavik — Graph

°F

Reykjavik temperature yesterday

Maximum temperature yesterday: 63 °F (at 2:00 PM)
Minimum temperature yesterday: 52 °F (at 3:00 AM)
Average temperature yesterday: 56 °F

Past Weeks' High & Low Weather Summary

 TemperatureHumidityPressure
High64 °F (Jun 26, 5:00 PM)94% (Jul 3, 1:00 AM)30.21 "Hg (Jul 3, 1:00 AM)
Low45 °F (Jun 22, 1:00 AM)30% (Jun 26, 5:00 PM)29.56 "Hg (Jul 1, 4:00 AM)
Average53 °F70%29.93 "Hg
* Reported Jun 21 7:00 AM — Jul 6 7:00 AM, Reykjavik, Weather by CustomWeather, © 2015

Note: Actual official high and low records may vary slightly from our data, if they occured in-between our weather recording intervals... More about our weather records

Advertising

Reykjavik weather history for previous 24 hours

 ConditionsComfort  
Time TempWeatherWind HumidityBarometerVisibility
7:00 AM
Mon, Jul 6
52 °FBroken clouds.2 mph77%30.01 "HgN/A
6:00 AM52 °FBroken clouds.No wind82%29.98 "HgN/A
5:00 AM50 °FBroken clouds.No wind88%29.98 "HgN/A
4:00 AM50 °FOvercast.2 mph88%29.98 "HgN/A
3:00 AM52 °FPartly cloudy.No wind82%29.98 "HgN/A
2:00 AM52 °FPartly cloudy.2 mph88%29.98 "HgN/A
1:00 AM52 °FPartly cloudy.No wind82%29.98 "HgN/A
12:00 AM54 °FPassing clouds.6 mph77%29.98 "HgN/A
11:00 PM
Sun, Jul 5
54 °FBroken clouds.2 mph82%29.98 "HgN/A
10:00 PM54 °FBroken clouds.5 mph77%29.98 "HgN/A
9:00 PM54 °FLight rain. Broken clouds.6 mph82%29.95 "HgN/A
8:00 PM54 °FLight rain. More clouds than sun.6 mph82%29.95 "HgN/A
7:00 PM55 °FDrizzle. Partly sunny.5 mph67%29.95 "HgN/A
6:00 PM55 °FPartly sunny.7 mph67%29.92 "HgN/A
5:00 PM55 °FPartly sunny.9 mph72%29.92 "HgN/A
4:00 PM55 °FPartly sunny.12 mph77%29.92 "HgN/A
3:00 PM61 °FPartly sunny.10 mph52%29.92 "HgN/A
2:00 PM63 °FBroken clouds.12 mph45%29.92 "HgN/A
1:00 PM59 °FPartly sunny.8 mph55%29.92 "HgN/A
12:00 PM59 °FPassing clouds.7 mph55%29.92 "HgN/A
11:00 AM57 °FPartly sunny.6 mph63%29.92 "HgN/A
10:00 AM57 °FDrizzle. Partly sunny.No wind63%29.95 "HgN/A
9:00 AM55 °FLight rain. Partly sunny.2 mph72%29.95 "HgN/A
8:00 AM57 °FPartly sunny.6 mph59%29.95 "HgN/A
Weather by CustomWeather, © 2015

See weather overviewHow to use our weather pages